• In Uzbekistan
  • List of Countries
  • For 7 days
  • Water Temperature
  • Weather Map
  • Weather Widgets
  • user-avatar
    Login

    Hourly Weather Mingachevir

    Today, 26 February, Wednesday

    Time Temperature Precipitation Wind Pressure Humidity
    00:00 +6°C° 0 mm 5 mps 755 mmHg 50%
    01:00 +5°C° 0 mm 4 mps 755 mmHg 55%
    02:00 +5°C° 0 mm 3 mps 755 mmHg 61%
    03:00 +5°C° 0 mm 2 mps 755 mmHg 66%
    04:00 +5°C° 0 mm 2 mps 755 mmHg 64%
    05:00 +5°C° 0 mm 1 mps 756 mmHg 62%
    06:00 +5°C° 0 mm 1 mps 756 mmHg 60%
    07:00 +6°C° 0 mm 1 mps 757 mmHg 56%
    08:00 +6°C° 0 mm 2 mps 757 mmHg 51%
    09:00 +7°C° 0 mm 2 mps 758 mmHg 47%
    10:00 +8°C° 0 mm 2 mps 758 mmHg 44%
    11:00 +9°C° 0 mm 2 mps 757 mmHg 42%
    12:00 +10°C° 0 mm 2 mps 757 mmHg 39%
    13:00 +10°C° 0 mm 2 mps 757 mmHg 39%
    14:00 +10°C° 0 mm 2 mps 757 mmHg 40%
    15:00 +12°C° 0 mm 2 mps 756 mmHg 40%
    16:00 +10°C° 0 mm 2 mps 757 mmHg 43%
    17:00 +11°C° 0 mm 1 mps 757 mmHg 45%
    18:00 +10°C° 0 mm 1 mps 757 mmHg 48%
    19:00 +9°C° 0 mm 1 mps 757 mmHg 50%
    20:00 +9°C° 0 mm 1 mps 757 mmHg 51%
    21:00 +8°C° 0 mm 1 mps 758 mmHg 53%
    22:00 +8°C° 0 mm 1 mps 757 mmHg 55%
    23:00 +6°C° 0 mm 0 mps 757 mmHg 56%

    Tomorrow, 27 February, Thursday

    Time Temperature Precipitation Wind Pressure Humidity
    00:00 +6°C° 0 mm 0 mps 757 mmHg 58%
    01:00 +7°C° 0 mm 1 mps 756 mmHg 57%
    02:00 +7°C° 0 mm 1 mps 756 mmHg 57%
    03:00 +5°C° 0 mm 2 mps 756 mmHg 56%
    04:00 +6°C° 0 mm 1 mps 756 mmHg 57%
    05:00 +6°C° 0 mm 1 mps 756 mmHg 57%
    06:00 +5°C° 0 mm 1 mps 755 mmHg 57%
    07:00 +7°C° 0 mm 1 mps 755 mmHg 52%
    08:00 +8°C° 0 mm 1 mps 755 mmHg 48%
    09:00 +9°C° 0 mm 1 mps 755 mmHg 44%
    10:00 +11°C° 0 mm 1 mps 755 mmHg 40%
    11:00 +12°C° 0 mm 1 mps 754 mmHg 37%
    12:00 +13°C° 0 mm 1 mps 754 mmHg 34%
    13:00 +14°C° 0 mm 1 mps 753 mmHg 33%
    14:00 +14°C° 0 mm 1 mps 753 mmHg 31%
    15:00 +15°C° 0 mm 1 mps 752 mmHg 30%
    16:00 +14°C° 0 mm 1 mps 752 mmHg 33%
    17:00 +13°C° 0 mm 1 mps 752 mmHg 36%
    18:00 +12°C° 0 mm 1 mps 752 mmHg 39%
    19:00 +12°C° 0 mm 1 mps 752 mmHg 43%
    20:00 +11°C° 0 mm 1 mps 752 mmHg 47%
    21:00 +10°C° 0 mm 1 mps 752 mmHg 51%
    22:00 +10°C° 0 mm 1 mps 751 mmHg 52%
    23:00 +9°C° 0 mm 0 mps 751 mmHg 53%

    Day after tomorrow, 28 February, Friday

    Time Temperature Precipitation Wind Pressure Humidity
    00:00 +8°C° 0 mm 0 mps 750 mmHg 55%
    01:00 +8°C° 0 mm 0 mps 750 mmHg 57%
    02:00 +8°C° 0 mm 0 mps 750 mmHg 58%
    03:00 +7°C° 0 mm 0 mps 749 mmHg 60%
    04:00 +7°C° 0 mm 0 mps 749 mmHg 62%
    05:00 +7°C° 0 mm 0 mps 748 mmHg 63%
    06:00 +6°C° 0 mm 0 mps 748 mmHg 65%
    07:00 +7°C° 0 mm 0 mps 748 mmHg 60%
    08:00 +9°C° 0 mm 0 mps 747 mmHg 55%
    09:00 +10°C° 0 mm 0 mps 747 mmHg 50%
    10:00 +12°C° 0 mm 1 mps 747 mmHg 43%
    11:00 +14°C° 0 mm 2 mps 746 mmHg 37%
    12:00 +14°C° 0 mm 3 mps 746 mmHg 31%
    13:00 +17°C° 0 mm 3 mps 745 mmHg 28%
    14:00 +18°C° 0 mm 4 mps 745 mmHg 24%
    15:00 +19°C° 0 mm 4 mps 745 mmHg 21%
    16:00 +18°C° 0 mm 4 mps 745 mmHg 22%
    17:00 +17°C° 0 mm 4 mps 745 mmHg 24%
    18:00 +17°C° 0 mm 4 mps 746 mmHg 26%
    19:00 +15°C° 0 mm 7 mps 746 mmHg 29%
    20:00 +14°C° 0 mm 10 mps 747 mmHg 33%
    21:00 +14°C° 0 mm 13 mps 748 mmHg 37%
    22:00 +13°C° 0 mm 12 mps 748 mmHg 38%
    23:00 +12°C° 0 mm 11 mps 748 mmHg 40%

    29 February, Saturday

    Time Temperature Precipitation Wind Pressure Humidity
    00:00 +11°C° 0 mm 10 mps 749 mmHg 42%
    01:00 +11°C° 0 mm 9 mps 749 mmHg 43%
    02:00 +10°C° 0 mm 8 mps 749 mmHg 44%
    03:00 +10°C° 0 mm 6 mps 749 mmHg 46%
    04:00 +9°C° 0 mm 5 mps 750 mmHg 48%
    05:00 +10°C° 0 mm 4 mps 750 mmHg 49%
    06:00 +9°C° 0 mm 3 mps 751 mmHg 51%
    07:00 +10°C° 0 mm 3 mps 751 mmHg 50%
    08:00 +11°C° 0 mm 3 mps 751 mmHg 48%
    09:00 +11°C° 0 mm 3 mps 751 mmHg 47%
    10:00 +13°C° 0 mm 4 mps 750 mmHg 45%
    11:00 +14°C° 0 mm 5 mps 750 mmHg 43%
    12:00 +16°C° 0 mm 6 mps 749 mmHg 41%
    13:00 +16°C° 0 mm 7 mps 748 mmHg 42%
    14:00 +16°C° 0 mm 7 mps 748 mmHg 43%
    15:00 +16°C° 0 mm 7 mps 747 mmHg 44%
    16:00 +15°C° 0 mm 6 mps 747 mmHg 46%
    17:00 +14°C° 0 mm 6 mps 747 mmHg 49%
    18:00 +13°C° 0 mm 5 mps 747 mmHg 52%
    19:00 +12°C° 0 mm 5 mps 747 mmHg 56%
    20:00 +11°C° 0 mm 4 mps 747 mmHg 60%
    21:00 +10°C° 0 mm 3 mps 747 mmHg 65%
    22:00 +10°C° 0 mm 3 mps 747 mmHg 69%
    23:00 +9°C° 0 mm 2 mps 746 mmHg 73%

    1 March, Sunday

    Time Temperature Precipitation Wind Pressure Humidity
    00:00 +9°C° 0 mm 1 mps 746 mmHg 77%
    01:00 +7°C° 0.1 mm 5 mps 746 mmHg 75%
    02:00 +6°C° 0.1 mm 9 mps 746 mmHg 73%
    03:00 +5°C° 0.1 mm 13 mps 746 mmHg 71%
    04:00 +7°C° 0 mm 12 mps 747 mmHg 63%
    05:00 +7°C° 0 mm 11 mps 747 mmHg 55%
    06:00 +8°C° 0 mm 10 mps 747 mmHg 46%
    07:00 +8°C° 0 mm 11 mps 748 mmHg 42%
    08:00 +9°C° 0 mm 11 mps 748 mmHg 38%
    09:00 +9°C° 0 mm 12 mps 749 mmHg 34%
    10:00 +10°C° 0 mm 12 mps 749 mmHg 30%
    11:00 +10°C° 0 mm 12 mps 750 mmHg 27%
    12:00 +12°C° 0 mm 12 mps 750 mmHg 23%
    13:00 +12°C° 0 mm 12 mps 751 mmHg 22%
    14:00 +12°C° 0 mm 12 mps 751 mmHg 22%
    15:00 +13°C° 0 mm 12 mps 751 mmHg 21%
    16:00 +12°C° 0 mm 10 mps 752 mmHg 25%
    17:00 +11°C° 0 mm 9 mps 753 mmHg 28%
    18:00 +10°C° 0 mm 8 mps 754 mmHg 32%
    19:00 +9°C° 0.1 mm 6 mps 754 mmHg 40%
    20:00 +8°C° 0.1 mm 5 mps 755 mmHg 47%
    21:00 +8°C° 0.1 mm 3 mps 756 mmHg 55%
    22:00 +7°C° 0 mm 3 mps 756 mmHg 58%
    23:00 +5°C° 0 mm 3 mps 757 mmHg 60%

    2 March, Monday

    Time Temperature Precipitation Wind Pressure Humidity
    00:00 +5°C° 0 mm 3 mps 757 mmHg 62%
    01:00 +5°C° 0 mm 2 mps 757 mmHg 65%
    02:00 +5°C° 0 mm 2 mps 757 mmHg 67%
    03:00 +4°C° 0 mm 2 mps 757 mmHg 70%
    04:00 +5°C° 0 mm 1 mps 758 mmHg 72%
    05:00 +5°C° 0 mm 1 mps 758 mmHg 74%
    06:00 +5°C° 0 mm 1 mps 758 mmHg 76%
    07:00 +6°C° 0 mm 1 mps 758 mmHg 71%
    08:00 +7°C° 0 mm 1 mps 758 mmHg 66%
    09:00 +8°C° 0 mm 1 mps 758 mmHg 61%
    10:00 +9°C° 0 mm 1 mps 758 mmHg 55%
    11:00 +10°C° 0 mm 1 mps 757 mmHg 50%
    12:00 +11°C° 0 mm 1 mps 757 mmHg 44%
    13:00 +11°C° 0 mm 1 mps 756 mmHg 43%
    14:00 +12°C° 0 mm 1 mps 756 mmHg 41%
    15:00 +12°C° 0 mm 1 mps 755 mmHg 39%
    16:00 +11°C° 0 mm 1 mps 755 mmHg 41%
    17:00 +11°C° 0 mm 1 mps 755 mmHg 43%
    18:00 +10°C° 0 mm 1 mps 756 mmHg 45%
    19:00 +10°C° 0 mm 1 mps 756 mmHg 48%
    20:00 +9°C° 0 mm 1 mps 756 mmHg 50%
    21:00 +9°C° 0 mm 1 mps 756 mmHg 53%
    22:00 +8°C° 0 mm 1 mps 756 mmHg 55%
    23:00 +8°C° 0 mm 1 mps 756 mmHg 58%
    Show more